Wetterstation Camping Dickerscheid
Wetterdaten: aktuell Samstag, 17.02.2018 15:26
Datum Zeit Temp. Innen Temp. Auen Feuchte I. Feuchte A. Luftdruck Regen Wind W-Richtung W-Richtung Taupunkt Windchill Windben
17.02.2018 15:26 21,6 C 2,1 C 29 % 85 % 1018,5 hPa 0,2 mm 2,0 km/h (1 Bft) O 81 -0,2 C 2,1 C 3,2 km/h (1 Bft)
17.02.2018 14:26 21,6 C 2,2 C 29 % 84 % 1018,5 hPa 0,0 mm 2,2 km/h (1 Bft) O-NO 69 -0,2 C 2,2 C 3,2 km/h (1 Bft)
17.02.2018 13:26 21,3 C 1,9 C 31 % 85 % 1018,3 hPa 0,2 mm 3,2 km/h (1 Bft) NO 45 -0,3 C 1,9 C 6,4 km/h (2 Bft)
17.02.2018 12:26 21,3 C 1,6 C 30 % 86 % 1018,1 hPa 0,2 mm 0,0 km/h (0 Bft) W-SW 257 -0,5 C 1,6 C 0,0 km/h (0 Bft)
17.02.2018 11:26 20,4 C 0,8 C 30 % 88 % 1017,8 hPa 0,0 mm 0,0 km/h (0 Bft) W-SW 257 -1,0 C 0,8 C 0,0 km/h (0 Bft)
17.02.2018 10:26 19,9 C 0,1 C 30 % 89 % 1017,7 hPa 0,0 mm 0,0 km/h (0 Bft) W-SW 257 -1,5 C 0,1 C 0,0 km/h (0 Bft)
17.02.2018 09:26 20,3 C -0,9 C 30 % 91 % 1017,7 hPa 0,0 mm 0,0 km/h (0 Bft) W-SW 257 -2,2 C -0,9 C 0,0 km/h (0 Bft)
17.02.2018 08:26 20,2 C -1,3 C 30 % 92 % 1018,0 hPa 0,0 mm 0,0 km/h (0 Bft) W-SW 257 -2,4 C -1,3 C 0,0 km/h (0 Bft)
17.02.2018 07:26 20,2 C -1,1 C 30 % 93 % 1017,7 hPa 0,0 mm 0,0 km/h (0 Bft) W-SW 257 -2,1 C -1,1 C 0,0 km/h (0 Bft)
17.02.2018 06:26 20,2 C -1,1 C 30 % 93 % 1018,7 hPa 0,0 mm 0,0 km/h (0 Bft) W-SW 257 -2,1 C -1,1 C 0,0 km/h (0 Bft)
17.02.2018 05:26 20,2 C -1,1 C 30 % 94 % 1019,2 hPa 0,0 mm 0,0 km/h (0 Bft) W-SW 257 -1,9 C -1,1 C 0,0 km/h (0 Bft)
17.02.2018 04:26 20,3 C -1,1 C 30 % 92 % 1019,8 hPa 0,0 mm 0,0 km/h (0 Bft) W-SW 257 -2,2 C -1,1 C 0,0 km/h (0 Bft)
17.02.2018 03:26 20,4 C -0,8 C 29 % 92 % 1020,5 hPa 0,0 mm 0,0 km/h (0 Bft) W-SW 257 -1,9 C -0,8 C 0,0 km/h (0 Bft)
17.02.2018 02:26 20,3 C -0,9 C 30 % 91 % 1020,9 hPa 0,0 mm 0,0 km/h (0 Bft) W-SW 257 -2,2 C -0,9 C 0,0 km/h (0 Bft)
17.02.2018 01:26 20,5 C -0,6 C 30 % 91 % 1021,7 hPa 0,0 mm 0,0 km/h (0 Bft) W-SW 257 -1,9 C -0,6 C 0,0 km/h (0 Bft)
17.02.2018 00:26 20,4 C -0,8 C 30 % 89 % 1022,4 hPa 0,0 mm 0,0 km/h (0 Bft) W-SW 257 -2,4 C -0,8 C 0,0 km/h (0 Bft)
16.02.2018 23:26 20,7 C -1,5 C 30 % 93 % 1022,8 hPa 0,0 mm 0,0 km/h (0 Bft) W-SW 257 -2,5 C -1,5 C 0,0 km/h (0 Bft)
16.02.2018 22:26 20,5 C -1,0 C 30 % 92 % 1023,1 hPa 0,0 mm 0,0 km/h (0 Bft) W-SW 257 -2,1 C -1,0 C 0,0 km/h (0 Bft)
16.02.2018 21:26 20,5 C -0,7 C 30 % 92 % 1023,4 hPa 0,0 mm 0,0 km/h (0 Bft) W-SW 257 -1,8 C -0,7 C 0,0 km/h (0 Bft)
16.02.2018 20:26 20,6 C -0,6 C 30 % 91 % 1023,4 hPa 0,0 mm 0,0 km/h (0 Bft) W-SW 257 -1,9 C -0,6 C 0,0 km/h (0 Bft)
16.02.2018 19:26 20,6 C 0,1 C 30 % 88 % 1023,3 hPa 0,0 mm 0,0 km/h (0 Bft) W-SW 257 -1,6 C 0,1 C 0,0 km/h (0 Bft)
16.02.2018 18:26 20,7 C 0,8 C 31 % 88 % 1023,7 hPa 0,0 mm 0,0 km/h (0 Bft) W-SW 257 -1,0 C 0,8 C 0,0 km/h (0 Bft)
16.02.2018 17:26 21,1 C 1,5 C 30 % 88 % 1023,7 hPa 0,0 mm 0,0 km/h (0 Bft) W-SW 257 -0,3 C 1,5 C 0,0 km/h (0 Bft)
16.02.2018 16:25 20,8 C 1,9 C 31 % 89 % 1023,5 hPa 0,0 mm 0,2 km/h (0 Bft) S 178 0,3 C 1,9 C 1,6 km/h (1 Bft)
16.02.2018 16:00 20,8 C 2,1 C 31 % 89 % 1023,3 hPa 0,0 mm 0,7 km/h (0 Bft) NO 42 0,5 C 2,1 C 3,2 km/h (1 Bft)
_ Min-Zeit 10:08 23:05 10:05 13:17 07:31 - 16:10 - - 23:05 23:05 16:10
Minimum _ 19,4 C -1,6 C 27 % 84 % 1017,5 hPa - 0,0 km/h (0 Bft) - - -2,7 C -1,6 C 0,0 km/h (0 Bft)
_ Max-Zeit 13:57 14:13 16:00 05:12 17:41 12:11 13:21 - - 16:00 14:13 13:21
Maximum _ 21,7 C 2,2 C 31 % 94 % 1023,8 hPa 0,2 mm 6,4 km/h
NO (2 Bft)
- - 0,5 C 2,2 C 8,0 km/h
NO (2 Bft)
Durchschnitt _ 20,6 C 0,1 C 30 % 90 % 1020,8 hPa #0,6 mm 0,3 km/h (0 Bft) O-NO - -1,4 C 0,1 C 0,7 km/h (0 Bft)